Погода в Борисоглебске

Погода в Борисоглебске : погода сейчас, прогноз погоды и архив. Всё, что Вы хотите узнать о погоде в Борисоглебске!

Хотите узнать прогноз погоды в Борисоглебске? Тогда Вам сюда: Погода в Борисоглебске

Поиск расширенной информации на нашем сайте:

Другие новости

Новости СМИ2

Главная страница сайта

Новости сайта

03.07.2017

Напоминаем, что на нашем специализированном сайте Метеоцентр.Азия вы можете получить высокодетализированные автоматические прогнозы погоды по пунктам России, СНГ и мира в авиационном формате (включающие направление и скорость ветра, видимость, явления погоды, количество и форму облачности, нижнюю и верхнюю границу облачности).


Погода в Борисоглебске - сегодня

Время (UTC), дата Ветер
(°,м/с) 
Видим.   Явления Облачность Т
(°С)
Тd
(°С)
f(%) Тe
(°С)
Pmin
(гПа)
dP
(гПа)
Po
(мм)
O2
(г/м3)
Тmin Tmax R s Состояние
почвы
09 20.01.18 160 (Ю) 4000 м  слаб. снег  10/10 600 м 
[Sc]
-7.3 -9 88 -10  1017.3  0.1  753  313           
12 20.01.18 130 (ЮВ) 4000 м  слаб. снег  10/10 600 м 
[Sc]
-5.5 -7.3 87 -8  1017  -0.2  753  310           
15 20.01.18 160 (Ю) 4000 м  позёмок{снег}  9/9 600 м 
[Sc]
-4.9 -6.2 91 -8  1017.9  1.1  753  310    -4.7     
18 20.01.18 160 (Ю) 4000 м  дымка{снег}  9/9 600 м 
[Sc]
-4.2 -5.4 91 -5  1017.9  753  309           
21 20.01.18 150 (ЮВ) 4000 м  слаб. снег  10/10 600 м 
[Sc]
-4.1 -5 93 -6  1016.9  -0.9  753  308           
00 21.01.18 100 (В) 4000 м  слаб. снег  10/10 600 м 
[Sc]
-4.5 -5.4 93 -7  1015.7  -1.3  752  309           
03 21.01.18 120 (ЮВ) 4000 м  слаб. снег  10/10 300 м 
[Frnb|Ns]
-3.5 -4.3 94 -6  1013.5  -2.1  750  307  -4.9    11  11  неравномерный
сухой снег
100% 
06 21.01.18 160 (Ю) 4000 м  слаб. снег  10/10 300 м 
[Frnb|Ns]
-2.2 -3.1 94 -5  1013.4  750  305           
09 21.01.18 150 (ЮВ) 4000 м  позёмок{снег}  9/9 600 м 
[Sc]
-2 -3.5 89 -4  1010.7  -2.6  748  304           
12 21.01.18 150 (ЮВ) 4-11{11}  4000 м  слаб. снег  10/10 300 м 
[Frnb|Ns]
-2.3 -3.8 89 -5  1008.8  -1.9  747  304           
15 21.01.18 160 (Ю) 4-11{11}  4000 м  слаб. снег  10/10 300 м 
[Frnb|Ns]
-2.6 -3.6 93 -5  1007.6  -1.3  746  304    -1.7     
18 21.01.18 190 (Ю) 4-10{10}  4000 м  позёмок{снег}  9/9 600 м 
[Sc]
-0.4 -1.3 94 -3  1007  -0.4  745  301           
21 21.01.18 250 (З) 3{10}  10 км  позёмок  9/9 600 м 
[Sc]
-3 -5.4 83 -5  1013.4  6.1  750  306           
00 22.01.18 270 (З) 10 км  позёмок  9/9 600 м 
[Sc]
-2.4 -5 82 -3  1015.2  1.9  751  306           
03 22.01.18 тихо ()   10 км    9/9 600 м 
[Sc]
-4.1 -6.4 84 -4  1016.4  1.1  752  308  -4.1    0.9  15  неравномерный
сухой снег
100% 
06 22.01.18 250 (З) 4000 м  дымка  6/0 средняя 
[Ac trans]
-8.4 -9.9 89 -8  1019.2  2.4  754  314  -8.4         
09 22.01.18 350 (С) 10 км    8/0 средняя 
[Ac trans]
-3.7 -7 78 -3  1020  1.1  755  309           
12 22.01.18 080 (В) 10 км    8/0 средняя 
[Ac trans]
-4.5 -7.2 81 -4  1020.3  0.2  755  310           
15 22.01.18 070 (В) 4000 м  дымка  6/0 средняя 
[Ac trans]
-6.9 -8.5 88 -7  1020.5  0.1  755  313    -3.5       
18 22.01.18 060 (СВ) 4000 м  дымка  9/9 600 м 
[Sc]
-6.3 -7.5 91 -6  1021.3  0.8  756  312           
21 22.01.18 050 (СВ) 4000 м  дымка  9/9 600 м 
[Sc]
-5.3 -7.1 87 -8  1020.5  -0.7  755  311           
00 23.01.18 050 (СВ) 4000 м  дымка  9/9 600 м 
[Sc]
-5.2 -7.3 85 -8  1019.7  -0.8  755  311           
03 23.01.18 060 (СВ) 4000 м  дымка  9/9 600 м 
[Sc]
-5.3 -7.1 87 -8  1019.4  -0.3  754  311  -7.2      15  неравномерный
сухой снег
100% 
06 23.01.18 050 (СВ) 4000 м  дымка{снег}  9/9 600 м 
[Sc]
-5.4 -6.4 93 -8  1019.4  754  311           
09 23.01.18 060 (СВ) 4000 м  слаб. снег  10/10 600 м 
[Sc]
-5 -6.7 88 -7  1018.5  -0.9  754  310           
Время (UTC), дата Ветер
(°,м/с) 
Видим.   Явления Облачность Т
(°С)
Тd
(°С)
f(%) Тe
(°С)
Pmin
(гПа)
dP
(гПа)
Po
(мм)
O2
(г/м3)
Тmin Tmax R s Состояние
почвы

Для получения пояснительной информации подведите курсор к названию столбца.

ПОГОДА в Борисоглебске - архив

Всё, что Вы хотите узнать о погоде в Борисоглебске - удобно и подробно!

Выберите нужную дату (начиная с 1 января 2015* года) и нажмите кнопку "Найти".
Будут отображены архивные сводки погоды по пункту Борисоглебск, начиная с указанной даты.


Отображать данные в формате CSV (для использования в таблицах Excel)


Внимание! Наш архив погоды предназначен исключительно для личного некоммерческого использования в познавательных целях. Если Вам необходимы официальные справки о состоянии погоды (для производственных, юридических, коммерческих и т.п. целей), обращайтесь в органы Росгидромета.

*Примечание: данная дата относится к архиву по метеостанциям СССР (Россия, СНГ, Балтия).
Архив по метеостанциям Зарубежной Европы и Азии (кроме Китая) хранится 10 дней, по другим регионам земного шара (Китай, Африка, Америка, Австралия, Океания) - 1 день.

Борисоглебск - район местоположения метеостанции


Название, широта, долгота, высота метеостанции:
Борисоглебск 51.4°ш. 42.1°д. 106 м над ур. моря [Российская Федерация]

Дополнительная информация

В oтличие oт бoльшинства пoгoдных сайтoв мы публикуем пoдрoбную метеoинфoрмацию в детальнoм прoфессиoнальнoм фoрмате.

Характеристики температуры и влажнoсти вoздуха измеряются на высoте 2 м в тени вдали oт зданий и деревьев.
Скoрoсть ветра измеряется на высoте 10 м (на урoвне рoста челoвека скoрoсть ветра ниже в 1.5-2 раза). Если метеoстанция нахoдится в гoрoде или в лесу, тo скoрoсть ветра занижена на 2-4 м/с пo сравнению с oткрытым местoм. Скoрoсть ветра над акватoриями крупных рек и oзёр, а также на вершинах хoлмoв на 2-5 м/с выше, чем в oбычных услoвиях.
Атмoсфернoе давление в разных тoчках местнoсти мoжет значительнo oтличаться oт давления на метеoстанции, в зависимoсти oт услoвий рельефа (при пoдъёме на 10 м давление пoнижается примернo на 1 мм рт.ст.).